Theta_e
345 346 348 349 349 349 353 353 352 352 353 352 350 350 350 352 354 354 357 360 356 356 359 358 354 357 356 354 352 354 357 357 356 357 355 354 358 359 365 365 368 368 368 369 369 367 365 361 363 363 359 358 356 355 355 355 354 355 353 357 352 351 349 351 353 354 353 353 355 353 353 353 351 350 350 350 349 350 353 353 353 353 355 357 361
346 345 346 348 347 347 350 351 350 346 349 350 350 351 352 351 353 354 356 359 358 356 358 359 359 356 356 356 353 351 353 355 357 359 358 357 363 365 366 367 369 369 370 371 369 367 365 361 364 363 360 359 358 357 356 358 361 359 356 353 350 348 348 351 350 349 346 347 347 349 351 353 354 351 349 348 349 350 350 351 354 352 351 352 356
345 346 348 348 346 349 348 349 349 348 348 349 351 352 352 352 355 356 355 355 356 358 358 360 361 362 359 358 357 353 354 356 355 357 360 358 358 362 369 368 368 368 370 370 367 366 362 361 361 363 365 362 359 358 358 358 360 358 359 355 354 351 350 352 354 352 345 348 351 349 345 344 350 347 349 349 346 345 347 349 351 351 350 351 352
345 347 346 347 348 350 350 351 352 351 351 351 351 352 352 354 355 357 357 357 357 358 363 362 363 367 368 365 363 362 358 360 362 364 362 359 361 361 365 368 369 366 366 365 365 364 364 363 360 358 361 366 361 357 357 355 357 355 355 356 355 351 351 351 354 356 355 350 345 345 346 343 340 346 347 347 348 345 344 345 349 349 349 350 351
346 346 347 347 348 350 352 353 353 352 352 352 352 352 351 352 355 357 358 358 357 359 363 367 366 366 369 368 365 363 363 361 358 355 358 360 360 361 360 365 366 366 365 364 364 364 365 364 362 361 360 360 359 357 357 355 356 356 357 357 356 356 351 353 354 352 352 357 352 347 345 339 341 345 344 345 346 344 344 343 346 348 349 348 347
347 347 348 349 350 350 352 352 352 352 352 352 353 353 353 353 354 356 357 357 356 358 363 367 366 364 364 361 359 357 356 356 354 353 353 353 353 358 358 358 360 366 365 364 364 363 366 366 366 363 360 358 357 356 356 355 356 356 358 358 355 359 357 355 352 353 352 357 356 355 354 346 343 345 343 339 345 346 346 344 347 351 352 350 348
347 347 348 349 351 351 352 352 351 350 352 353 353 353 353 354 356 357 357 360 359 361 363 366 366 364 364 359 356 355 354 355 358 357 355 354 354 355 358 360 360 361 362 363 364 366 366 365 367 366 362 359 359 357 357 357 357 358 360 359 359 360 360 356 352 352 354 355 354 353 355 356 353 347 341 342 337 341 345 344 344 345 347 349 349
345 346 348 348 351 351 351 352 351 350 352 353 352 352 354 356 357 358 362 363 362 361 362 366 365 364 364 361 356 353 351 353 356 358 358 360 358 361 358 357 358 359 361 364 363 365 366 365 366 366 362 361 359 359 358 359 359 360 363 363 362 362 361 357 356 353 352 352 355 355 353 356 356 354 351 343 342 338 340 344 346 344 347 350 350
344 344 346 348 349 350 350 351 352 351 352 352 353 353 353 356 358 359 360 364 362 362 361 364 365 362 362 359 358 356 355 354 357 358 357 360 357 357 358 357 358 361 364 366 365 366 366 367 367 367 364 365 365 362 362 361 360 360 362 361 362 361 362 361 360 356 354 353 353 355 353 351 355 354 350 347 346 343 339 340 340 345 346 348 352
344 345 347 349 350 350 350 351 353 352 353 354 354 354 354 356 359 360 362 363 362 365 363 362 364 363 360 360 358 357 357 359 358 357 358 362 361 361 360 361 359 360 365 369 370 367 365 367 364 363 364 363 364 366 365 363 361 362 361 361 361 362 364 363 360 360 357 358 358 359 356 353 352 350 348 344 344 348 339 340 340 340 340 344 347
344 345 346 349 350 350 350 349 352 352 353 353 354 354 354 354 358 361 363 363 364 365 364 363 363 362 360 361 361 358 358 357 357 359 359 360 360 359 359 360 361 361 364 367 365 365 366 365 362 362 363 366 364 363 361 358 357 358 358 361 361 360 360 362 361 362 360 357 356 359 357 354 350 345 346 344 343 344 344 341 342 340 338 339 347
343 344 345 348 350 350 350 350 350 352 352 353 353 354 357 357 358 361 364 366 366 365 365 364 362 362 361 362 362 362 361 358 358 358 360 361 359 359 361 359 360 361 363 363 365 364 364 363 365 365 363 363 360 358 356 353 352 352 351 355 356 359 362 363 364 362 361 359 360 359 357 356 354 351 350 347 345 344 343 345 342 342 341 342 345
343 344 345 347 349 350 350 351 352 353 353 354 353 354 356 358 359 361 364 367 367 364 366 367 366 364 363 362 364 365 363 363 361 361 362 359 359 358 360 362 364 365 363 362 362 364 364 363 363 361 361 362 364 360 356 355 353 351 350 350 355 359 360 362 362 363 361 358 357 358 358 356 355 356 354 348 345 350 350 346 344 343 339 342 348
341 343 344 348 350 350 351 351 352 353 353 353 353 355 355 355 359 358 361 366 370 368 366 367 367 367 367 367 365 366 366 365 366 362 360 363 363 360 358 357 358 359 360 361 359 359 360 361 361 362 363 363 362 363 360 360 357 353 354 354 355 357 360 363 364 362 360 360 360 356 354 355 355 356 356 352 349 349 347 345 344 343 343 340 345
342 344 343 346 349 350 350 350 352 353 351 351 352 355 356 355 356 360 361 366 370 367 366 365 363 365 366 365 364 363 361 362 362 364 364 364 358 354 354 352 350 348 347 349 353 354 355 357 356 357 357 357 358 358 353 355 355 358 358 358 359 360 362 362 359 358 356 355 356 356 354 355 355 356 356 352 351 348 349 348 347 342 340 341 340
341 343 343 347 349 350 349 349 350 350 351 350 350 353 352 355 359 360 362 365 364 366 365 364 364 360 365 366 363 362 363 361 363 365 364 357 347 344 345 347 347 345 348 350 352 353 351 351 353 350 353 352 353 354 354 352 352 352 356 360 359 359 358 359 358 357 357 357 356 356 355 355 356 356 355 355 356 356 352 353 351 344 340 339 341
340 342 342 347 347 348 347 349 348 348 349 350 351 352 355 357 359 360 363 366 364 367 363 363 363 361 363 362 361 363 360 353 345 348 352 344 345 345 342 345 344 346 344 348 348 351 352 353 352 347 346 350 351 352 351 353 357 358 357 359 358 358 359 357 357 355 356 355 356 356 354 355 356 357 356 356 358 357 354 354 354 349 343 342 341
341 342 344 348 348 347 346 347 347 348 349 350 353 353 356 360 361 361 364 365 366 366 362 359 360 359 361 359 358 354 347 344 345 345 344 344 345 346 345 343 341 341 343 344 347 348 349 350 349 349 347 349 349 349 349 351 357 357 359 360 360 360 358 357 357 356 355 356 355 355 355 354 356 357 356 356 357 358 357 354 353 354 354 345 345
341 340 343 346 346 346 347 346 346 348 349 349 352 354 359 361 362 364 364 366 366 366 364 361 359 355 353 351 348 346 342 346 349 350 350 347 344 341 340 341 340 343 344 347 348 347 347 346 348 347 347 348 350 350 351 351 352 352 355 355 357 360 359 357 357 357 355 355 355 354 355 354 355 355 355 355 356 357 358 357 357 356 354 355 350
341 340 342 344 345 346 346 348 346 348 348 348 350 354 355 360 365 366 366 367 367 365 362 360 360 355 347 346 343 346 349 351 352 352 350 342 340 340 340 339 340 341 342 342 342 343 344 344 343 342 342 343 346 347 349 350 351 353 353 352 352 356 356 359 359 356 354 355 356 356 356 356 356 356 356 356 357 359 359 359 358 358 360 357 354
344 340 342 343 345 344 346 348 349 350 350 351 351 354 350 362 365 365 362 363 363 363 362 362 361 357 350 341 341 345 349 352 352 353 351 345 343 342 341 341 342 341 343 343 343 345 345 345 345 346 344 346 347 348 348 349 351 351 353 355 355 354 354 354 358 357 355 354 356 357 358 359 360 359 356 357 358 358 356 359 362 362 355 355 354
343 341 341 342 345 344 346 349 351 350 352 353 353 354 352 362 362 362 362 363 361 359 361 361 360 353 346 345 345 347 352 354 353 351 349 344 342 342 341 344 341 343 343 344 346 345 346 346 345 346 347 346 349 351 349 350 350 350 350 350 349 351 352 352 354 355 356 355 355 356 355 355 360 359 357 357 355 356 359 359 360 357 353 353 359
344 343 343 344 345 346 348 352 352 349 352 353 353 355 356 360 359 360 360 360 359 361 363 360 354 352 349 348 350 351 353 355 355 354 351 346 343 344 343 343 344 345 346 344 343 343 344 346 346 346 347 347 349 349 349 350 351 352 351 350 348 348 348 347 348 351 353 355 354 355 354 355 357 356 356 357 358 358 360 359 358 360 357 356 360
350 348 345 348 351 350 355 354 353 352 355 356 358 360 356 357 357 359 359 360 360 360 358 356 353 348 349 351 353 355 356 356 355 353 352 348 345 344 344 345 348 347 344 345 345 344 347 349 348 348 349 351 351 352 351 351 353 354 353 351 350 349 348 347 347 348 348 350 351 353 354 355 357 357 355 355 359 358 357 359 359 360 360 361 361
351 352 354 356 353 351 356 356 356 358 359 360 362 361 358 357 357 358 360 359 359 359 357 357 353 351 351 352 354 356 356 355 351 350 348 349 349 347 346 348 349 348 347 347 346 347 347 348 346 347 349 351 351 353 353 354 354 355 353 352 351 351 350 350 350 350 350 350 350 350 350 354 355 355 357 359 356 356 357 357 358 359 358 359 359
352 352 354 354 355 356 358 358 359 360 359 361 363 361 359 358 359 361 361 360 359 361 360 357 355 353 353 353 354 357 356 356 356 355 352 349 350 350 351 350 351 352 353 351 350 349 345 344 345 345 347 350 352 353 353 353 353 353 351 351 351 351 351 351 351 350 350 350 349 350 351 352 352 352 354 354 356 357 357 356 356 359 359 358 357
352 353 354 356 356 356 358 360 359 358 359 359 359 358 358 359 361 362 363 363 363 363 361 360 358 356 356 355 354 355 356 358 357 356 354 353 354 354 354 352 353 353 353 352 351 350 348 347 349 350 348 349 350 351 351 352 353 353 353 352 351 351 351 350 351 351 350 350 349 348 349 350 350 351 352 354 357 357 357 356 357 358 359 358 356
352 352 353 353 354 356 357 358 358 357 359 358 355 357 360 361 360 361 364 363 360 359 360 359 359 357 356 354 354 354 356 357 358 359 358 357 357 356 355 355 354 354 353 352 351 350 350 350 350 351 351 351 352 351 351 351 352 351 351 351 351 350 349 349 350 350 350 350 349 349 349 350 349 349 350 352 357 356 357 358 356 357 357 357 356
347 349 351 351 352 355 355 355 357 357 357 358 359 360 360 359 359 360 361 361 361 359 358 358 358 358 357 358 357 358 358 360 360 360 358 357 356 355 355 354 355 353 350 350 350 350 349 349 350 350 351 350 349 348 349 349 350 350 350 350 349 348 349 348 347 348 349 349 350 350 350 351 352 352 350 352 355 356 357 356 358 358 357 357 357
346 348 349 351 353 355 355 355 356 355 356 356 357 358 357 355 354 356 358 360 361 361 359 358 357 357 358 359 359 360 360 358 357 356 355 355 354 353 353 353 352 352 352 352 352 351 350 349 348 349 350 349 348 349 348 348 348 350 350 349 348 348 349 348 346 346 347 348 349 349 350 351 347 348 348 350 350 350 351 355 359 357 357 357 357
346 349 350 352 353 353 354 354 353 354 354 355 354 353 353 355 356 359 360 360 360 357 357 357 357 358 358 359 357 355 355 354 354 353 353 353 353 353 352 351 350 351 351 351 350 350 349 349 348 348 348 347 347 347 346 340 340 341 349 349 346 346 347 347 346 345 346 347 348 349 351 351 350 350 354 348 349 349 349 349 349 351 351 347 347
347 350 351 350 350 350 350 350 352 351 350 351 355 358 356 354 356 355 355 355 353 353 352 353 353 353 352 352 351 351 352 352 353 353 353 353 352 352 350 350 348 348 348 348 347 347 348 348 347 347 346 346 346 344 336 336 338 337 342 347 345 345 344 345 346 346 345 346 346 347 349 350 350 351 352 354 352 347 347 348 349 349 349 350 351
348 348 348 348 349 350 349 348 348 354 357 352 351 350 349 351 350 351 352 350 351 350 350 349 350 351 351 352 352 352 351 351 351 352 352 351 350 348 348 347 346 346 347 346 347 346 346 346 346 345 345 345 345 340 334 334 334 334 335 343 345 344 343 344 344 345 344 345 347 347 347 348 349 346 349 351 352 354 349 343 343 346 347 346 343
345 346 347 347 346 346 349 352 350 347 347 347 349 348 349 349 350 350 350 349 348 349 350 350 350 351 351 351 350 351 351 351 351 350 349 348 347 346 346 346 345 346 345 345 345 344 345 346 346 345 345 345 345 341 333 332 331 331 332 336 346 344 344 344 344 345 344 345 346 348 346 346 349 351 353 352 352 352 352 355 357 355 356 352 345
342 342 344 346 349 350 347 347 346 345 348 350 350 349 348 350 350 348 350 349 349 349 348 349 349 350 351 351 351 349 348 348 348 347 346 346 345 345 344 345 344 344 343 343 343 344 344 344 345 345 344 343 343 335 331 330 329 328 329 334 345 344 344 344 345 345 346 346 346 348 348 346 348 349 350 352 352 352 353 353 351 355 355 355 355
343 344 346 345 344 344 345 346 346 346 347 346 346 346 347 347 349 350 350 351 350 349 349 349 349 349 349 349 348 348 347 346 345 345 344 343 343 343 343 343 344 343 344 344 344 344 344 344 344 345 343 342 343 333 329 328 326 326 329 343 344 345 343 343 345 346 347 348 348 347 348 348 348 348 346 342 345 352 351 352 353 354 356 354 355
341 341 340 343 344 345 344 347 345 346 345 345 347 347 347 346 346 347 347 347 346 346 346 346 346 346 346 346 346 345 344 344 343 343 342 341 341 342 342 343 342 342 341 342 343 342 343 343 343 343 343 342 343 336 328 325 324 324 329 343 345 343 342 340 343 345 347 347 347 346 344 348 349 350 344 335 336 345 350 348 349 352 351 351 351
337 341 342 344 344 345 342 340 340 346 346 348 348 348 347 345 344 345 346 345 345 344 345 344 343 344 344 345 345 344 343 343 342 341 341 341 341 342 342 343 341 340 340 341 342 341 342 342 343 342 342 342 343 339 329 325 323 323 333 344 344 341 340 342 340 342 346 347 347 339 346 345 348 348 338 332 333 345 347 348 349 346 345 346 348
340 340 342 343 344 342 339 343 344 343 344 346 346 344 343 343 344 345 344 343 342 342 342 341 341 342 342 343 344 343 342 341 340 340 340 340 340 340 341 342 340 340 340 340 340 339 339 340 341 342 339 340 342 338 328 324 323 322 332 344 345 345 343 342 340 340 344 345 344 343 341 340 343 342 332 331 330 341 346 345 347 347 346 346 347
338 340 343 343 343 342 340 341 343 345 345 344 344 341 343 342 342 343 341 340 340 340 341 342 342 342 342 342 342 342 341 340 340 340 341 340 341 341 341 341 339 339 338 338 338 338 338 338 341 341 340 341 341 343 341 326 322 321 322 342 345 343 341 341 341 340 342 341 341 345 346 334 328 328 327 327 327 327 344 349 344 344 347 345 349
341 339 342 341 340 338 335 336 342 344 344 344 343 343 341 341 340 339 338 338 340 340 340 340 340 340 340 340 341 340 340 340 340 339 340 340 340 339 340 339 337 337 337 337 337 338 337 337 339 339 340 341 341 341 341 326 321 320 320 325 341 341 342 341 336 338 339 339 341 343 342 338 326 324 323 322 322 322 330 347 346 345 348 349 350
341 341 340 339 337 338 339 338 341 342 343 342 341 340 339 338 337 336 337 338 339 340 340 339 339 339 338 338 338 339 339 338 338 339 338 337 338 338 337 337 336 336 335 335 336 336 336 336 338 339 339 340 340 338 342 331 324 320 319 319 336 341 341 340 339 340 340 338 339 341 342 341 328 323 321 319 318 320 323 343 347 332 332 333 353
340 339 340 337 338 338 339 342 341 341 342 340 339 337 336 335 333 335 336 337 337 337 338 337 337 336 337 337 337 338 337 337 336 337 336 335 337 336 337 336 334 334 334 334 334 335 334 334 335 336 337 338 340 341 334 340 329 321 319 319 320 330 330 339 337 335 336 337 340 342 343 336 327 321 316 317 317 318 323 335 327 326 327 327 340
337 336 338 339 339 340 341 341 341 342 340 339 337 334 333 332 333 335 336 336 336 336 335 335 334 333 334 335 335 336 336 336 335 335 335 333 333 333 333 333 333 333 332 332 332 333 333 333 332 333 335 337 339 343 339 334 339 327 320 317 317 317 319 332 337 336 336 336 338 340 341 328 321 316 314 315 317 321 332 324 321 323 326 332 344
338 340 341 341 339 339 339 339 339 338 338 338 337 333 332 331 332 334 334 334 333 333 332 332 331 332 333 334 334 334 334 334 334 333 332 331 332 332 331 332 332 332 331 331 331 331 330 331 331 333 335 338 341 342 344 341 333 330 322 318 318 318 317 315 325 334 335 335 329 323 321 319 319 315 314 314 317 320 317 320 321 323 331 341 343
340 342 340 340 340 338 337 336 336 336 335 336 335 333 330 331 333 333 333 332 331 330 330 330 330 331 331 332 330 331 331 331 331 331 331 331 330 331 330 331 331 330 331 330 330 330 330 330 330 333 334 335 337 339 338 338 337 335 332 324 320 319 326 324 326 330 327 324 322 321 320 320 321 323 332 337 343 343 328 324 325 329 342 344 344
338 339 339 338 337 335 334 334 333 334 333 333 332 331 332 333 332 331 329 330 330 329 328 328 328 329 329 329 328 327 327 329 331 331 331 331 331 331 330 330 330 330 330 329 330 330 330 330 331 332 333 332 333 333 333 332 333 332 330 329 327 326 325 325 327 332 331 334 332 329 332 328 329 332 334 337 339 340 343 342 341 339 341 342 344
339 338 336 335 334 332 332 331 330 331 331 331 330 331 331 330 329 329 328 327 327 327 326 326 326 327 327 327 327 328 328 328 329 330 330 330 331 331 330 329 330 330 328 329 329 330 329 330 330 329 327 326 326 328 329 328 327 324 321 319 317 318 318 321 323 328 334 337 337 336 330 333 336 338 339 341 342 345 344 345 346 343 341 341 340
337 336 334 333 331 330 330 329 329 330 330 330 330 329 329 328 327 327 328 326 325 325 326 326 326 326 326 327 328 329 329 328 329 329 331 331 331 330 331 332 335 334 333 331 332 331 330 329 326 323 321 320 321 322 324 319 319 311 311 310 311 312 315 318 321 318 321 323 329 336 340 338 337 335 336 338 340 340 339 334 334 334 335 336 336
335 335 334 332 331 330 329 328 328 329 329 329 328 328 328 327 327 327 326 325 325 325 325 325 325 326 326 326 327 327 328 328 328 329 330 331 330 321 326 332 331 330 325 317 315 324 325 322 320 321 322 318 317 319 314 306 303 302 301 301 302 302 302 308 311 309 312 314 320 330 338 338 337 337 338 339 339 337 334 331 327 325 328 328 326
333 331 331 330 329 329 329 328 328 328 328 328 327 327 327 327 327 327 326 325 325 324 324 324 325 325 325 325 326 326 327 328 329 330 331 330 330 334 313 309 315 322 317 306 304 304 306 311 317 318 319 315 313 308 304 302 301 300 298 298 297 297 298 298 299 304 310 314 323 332 336 338 337 339 339 337 334 332 327 325 325 329 328 327 326
Wind_Speed
9 10 12 13 13 11 10 9 9 10 10 11 11 11 11 10 10 10 9 8 7 7 7 7 7 7 8 9 8 7 7 7 8 7 8 8 8 8 7 7 7 8 7 7 6 6 6 6 7 7 7 7 7 8 8 9 9 10 9 9 11 10 9 9 9 8 8 8 9 11 10 10 10 10 11 11 10 9 9 8 8 9 9 9 8
9 10 11 12 12 13 11 10 11 12 12 12 12 12 11 12 11 10 9 8 9 9 8 8 8 8 7 7 6 6 6 6 6 6 7 6 7 7 8 7 7 7 6 7 7 7 7 7 8 8 8 7 8 9 10 10 10 10 8 8 10 12 10 9 7 7 9 9 9 8 8 7 8 9 11 11 11 10 10 9 9 9 10 10 9
10 11 11 11 13 12 11 11 11 13 13 13 13 13 12 11 10 10 9 9 9 10 9 9 8 8 7 5 5 6 6 6 6 6 6 8 8 8 7 7 8 7 7 7 7 9 9 8 8 7 8 8 8 9 10 11 9 10 9 8 7 11 11 8 7 8 9 9 9 9 9 8 6 8 9 10 10 10 9 9 9 10 11 11 10
12 11 12 12 12 12 12 12 12 11 12 12 12 13 12 11 11 10 10 10 9 9 10 10 8 5 6 6 6 5 5 5 6 7 8 9 7 7 6 7 8 8 8 9 8 8 8 8 8 9 8 8 8 8 9 11 10 11 11 11 10 10 9 9 9 8 8 7 9 8 6 9 9 6 6 7 9 10 10 10 9 10 11 11 10
11 12 12 12 12 13 13 12 11 12 12 12 12 12 10 13 12 11 10 10 10 9 9 7 5 5 5 5 6 7 7 8 8 9 9 8 8 8 8 8 8 8 8 10 10 9 8 8 8 9 9 9 8 8 9 10 11 11 11 10 10 10 9 9 8 8 10 9 9 8 7 8 9 5 8 10 7 8 11 12 10 10 10 10 10
10 11 11 11 11 11 12 12 12 11 12 12 12 12 11 10 11 11 10 10 10 11 9 7 7 7 6 6 6 6 7 7 8 8 7 7 8 7 8 8 8 8 8 9 10 9 8 9 9 9 10 9 8 9 10 10 11 11 10 10 11 11 9 8 9 10 11 10 11 10 9 9 7 6 7 6 7 9 9 9 9 9 9 10 10
11 10 11 11 11 11 12 12 12 12 11 10 10 10 11 11 10 10 9 9 10 9 8 7 7 8 9 9 8 8 7 7 7 6 7 6 7 7 5 6 7 9 9 8 8 8 8 8 8 9 9 8 8 9 10 11 11 11 10 10 9 8 8 8 11 10 9 10 10 14 15 12 10 8 8 8 9 9 9 9 9 11 12 12 11
11 12 12 12 12 12 12 11 11 11 10 10 9 9 9 9 9 9 8 8 7 6 8 8 8 8 8 9 8 9 9 8 6 6 6 6 6 6 7 7 7 7 8 8 8 8 8 8 8 8 8 9 8 9 10 10 10 10 10 10 9 8 9 9 10 10 9 8 10 11 11 11 10 12 12 13 10 12 10 10 11 11 10 10 11
12 11 12 12 12 12 12 11 10 10 9 9 8 7 8 9 8 8 8 7 7 7 7 8 8 7 7 7 8 7 8 7 6 6 6 6 7 7 7 7 6 6 7 8 8 8 8 8 8 8 8 8 8 9 10 11 12 11 10 10 10 10 10 10 9 10 9 10 8 11 12 11 9 8 9 14 12 10 13 12 10 9 11 11 11
12 12 11 12 12 12 11 10 10 9 9 8 9 8 8 8 9 9 9 7 6 7 7 7 7 6 7 7 8 7 6 6 6 6 5 5 6 7 6 6 6 6 7 7 8 9 9 9 9 10 10 10 9 10 11 11 11 11 12 12 12 12 10 11 11 10 9 10 10 10 10 10 11 11 12 14 14 13 15 12 10 11 10 10 11
11 11 11 11 12 11 11 11 11 11 9 9 9 8 8 8 9 9 8 7 6 6 7 7 7 6 6 7 8 8 8 7 6 6 5 6 6 7 6 6 6 6 6 7 9 9 9 9 10 10 10 10 10 11 11 11 11 11 12 13 13 13 11 12 12 12 9 9 13 12 11 12 11 12 12 12 12 11 12 15 13 13 13 11 10
12 11 11 11 11 11 11 11 11 11 10 10 10 9 8 8 7 8 8 8 7 7 7 7 6 7 7 7 8 8 7 6 7 7 6 7 7 7 6 6 6 7 7 8 8 10 9 9 11 11 10 10 11 10 11 11 11 11 11 11 11 12 12 12 11 12 14 13 14 13 13 12 12 13 12 12 11 13 15 13 11 11 11 11 10
12 11 11 11 11 11 11 11 10 10 10 10 10 9 9 9 9 9 8 8 8 8 8 8 7 7 7 8 8 7 7 8 7 7 6 6 6 6 6 6 6 7 8 9 9 11 10 10 10 9 9 9 10 10 11 12 12 12 13 13 13 12 11 12 11 13 14 14 13 13 12 13 14 12 12 14 14 12 13 13 14 12 12 10 9
12 12 12 11 11 11 11 11 11 10 11 11 10 9 8 7 8 8 9 8 8 7 7 7 8 7 7 7 6 6 6 6 5 6 6 4 4 6 7 7 7 8 8 8 9 10 9 9 9 10 10 10 11 11 11 11 12 12 13 12 13 11 11 12 13 15 14 15 13 12 13 13 13 13 13 12 13 11 10 13 13 13 14 12 9
12 12 12 12 12 12 11 11 11 10 11 10 9 9 8 7 8 8 8 7 7 7 7 7 7 7 6 6 6 6 5 5 5 4 4 5 6 7 6 7 8 9 9 9 10 11 12 11 11 11 11 12 11 11 12 12 12 12 12 12 11 11 12 12 13 14 14 15 15 13 13 13 13 13 12 12 12 14 11 12 14 15 13 13 12
13 13 13 13 12 12 11 11 10 10 10 9 10 10 9 8 9 9 9 8 8 8 7 7 7 6 7 6 6 5 4 4 3 3 4 4 6 6 6 7 8 9 9 10 10 11 12 13 13 13 13 12 12 12 12 12 12 12 11 11 12 10 11 14 13 14 14 15 15 14 13 14 13 13 13 14 14 14 13 10 3 11 14 12 11
13 13 13 13 13 13 11 12 11 11 10 10 10 10 10 9 9 9 8 8 8 8 8 7 7 7 7 8 7 6 6 7 7 4 3 4 5 5 6 6 7 8 9 9 10 9 10 10 11 12 12 11 12 11 12 12 12 12 11 12 12 13 12 13 12 12 12 13 13 15 14 13 13 13 14 14 13 12 10 9 9 11 15 14 12
14 14 13 13 13 14 13 12 12 11 11 11 10 9 9 8 9 9 9 9 8 8 8 8 8 8 7 7 7 7 6 5 3 2 4 5 5 5 6 6 6 7 7 8 9 10 10 11 11 12 12 12 12 12 12 12 12 11 12 12 13 12 12 12 12 12 13 12 13 13 13 13 13 14 14 15 14 13 11 11 12 11 12 15 11
13 14 13 13 13 13 13 13 12 11 10 10 10 9 7 8 8 8 8 8 8 7 7 6 7 6 6 7 7 6 4 3 3 5 5 6 6 6 7 7 8 8 7 7 8 9 10 10 10 11 11 12 13 13 12 12 12 11 12 12 13 12 12 13 12 12 12 12 13 14 13 13 14 14 14 14 15 14 13 13 11 9 8 11 13
14 14 14 14 14 14 14 12 12 11 11 9 10 10 11 8 8 7 7 7 8 8 7 7 7 6 5 5 5 4 4 5 5 6 6 7 8 8 8 8 8 7 8 9 9 10 10 11 11 12 12 12 13 13 12 12 11 11 11 12 12 12 12 12 13 12 11 12 13 14 13 12 12 12 13 13 11 12 12 12 11 8 5 9 11
14 14 13 14 14 14 14 13 10 10 9 8 8 9 9 8 8 8 9 9 9 8 8 7 6 6 6 6 7 7 7 6 7 7 7 8 8 8 7 7 7 8 9 10 10 11 11 11 12 12 12 12 12 13 12 12 11 11 11 13 13 13 13 12 12 14 13 13 13 13 14 14 13 13 13 12 10 11 14 12 7 5 7 9 10
15 14 13 13 13 13 12 11 10 10 9 9 8 7 8 7 7 7 8 8 9 8 7 7 6 6 8 8 7 5 7 7 8 8 9 9 9 8 8 8 9 8 9 11 11 11 11 12 12 13 13 13 12 12 13 12 12 13 13 11 12 13 13 13 12 13 13 12 13 14 14 15 13 14 14 14 13 13 13 10 8 7 9 10 9
14 14 12 12 12 12 11 11 11 11 9 9 8 8 8 8 8 8 8 9 8 7 7 6 7 7 8 8 7 7 7 9 9 9 9 10 10 9 8 8 9 9 9 10 11 12 12 12 12 13 13 13 13 13 12 13 13 13 14 14 14 14 14 14 13 14 14 13 15 14 15 14 12 14 15 14 14 14 13 14 13 10 11 11 9
9 10 8 9 10 10 10 10 10 9 9 9 8 8 8 8 8 8 9 9 8 6 6 7 7 8 9 9 9 9 10 10 10 9 10 11 11 9 8 8 9 9 11 10 11 12 12 12 13 13 13 13 13 13 13 13 14 14 15 15 15 15 15 14 14 14 14 14 14 14 14 14 14 15 15 13 13 13 13 13 13 12 11 11 9
7 8 7 8 9 10 9 9 9 9 9 9 8 8 7 8 8 8 8 8 7 6 7 7 8 9 9 10 11 10 10 11 12 11 12 11 11 10 9 9 9 10 11 11 11 12 12 12 13 14 14 13 13 13 13 14 14 13 14 15 15 14 15 15 14 14 14 14 14 15 15 14 14 15 14 13 13 14 12 13 13 12 12 10 9
6 6 7 8 7 7 7 8 8 8 8 8 8 8 8 8 8 7 7 7 7 6 7 8 8 9 10 11 11 10 11 12 12 11 12 11 10 10 10 9 10 11 11 11 11 11 12 14 13 14 14 14 13 13 14 14 15 15 14 14 14 14 15 15 15 15 15 15 15 15 15 15 15 15 15 14 13 15 13 12 14 13 12 11 10
6 6 5 6 6 6 7 7 7 8 8 7 8 8 7 7 7 7 5 5 5 6 6 7 8 9 9 10 11 11 10 10 10 11 10 9 10 10 10 10 10 10 11 11 12 13 12 13 13 13 14 14 14 14 14 14 14 15 15 15 15 16 16 15 15 15 16 16 16 16 15 15 16 16 16 15 14 14 13 14 13 13 13 11 11
4 5 5 6 5 6 7 7 7 7 6 6 6 6 6 6 6 5 5 5 4 6 7 8 8 9 9 11 10 10 10 10 10 9 9 9 9 9 9 9 10 11 12 13 13 13 12 12 12 13 13 13 14 14 14 14 14 14 14 15 15 15 16 16 16 16 16 16 17 16 16 16 16 16 16 16 15 13 12 12 12 12 13 13 12
5 4 4 5 6 6 6 7 7 6 6 6 5 4 3 3 3 4 4 6 6 7 7 8 8 8 8 8 8 8 8 8 8 8 8 8 9 9 9 10 10 12 12 13 13 13 13 13 13 13 14 13 13 13 12 12 13 14 14 15 15 16 16 16 15 16 16 16 16 16 16 16 17 18 18 16 15 13 12 13 12 11 11 12 11
5 5 5 5 5 6 6 7 6 6 6 5 4 3 3 4 5 6 7 6 6 6 7 7 7 7 7 7 7 7 7 7 8 8 8 9 9 9 10 11 12 12 12 12 12 13 13 13 13 13 13 13 13 11 13 15 14 13 14 13 14 14 15 15 15 16 16 16 16 16 16 19 17 16 16 17 17 18 17 15 11 8 7 10 11
5 5 5 5 5 5 5 5 5 5 4 2 3 4 5 5 4 4 4 3 3 4 5 5 6 6 6 6 6 7 7 8 8 8 9 9 10 10 10 11 12 12 13 12 12 13 12 12 13 13 14 13 12 12 14 13 13 14 13 15 16 15 16 16 16 16 15 15 16 16 16 17 17 17 17 19 18 19 19 20 20 19 14 13 11
6 6 5 5 5 5 4 4 3 3 3 3 2 1 1 2 2 1 1 1 2 3 4 5 5 6 6 7 7 8 8 8 9 9 10 10 10 10 11 12 12 13 12 12 13 13 13 13 12 13 14 14 14 14 14 12 11 11 11 14 15 15 15 14 15 16 15 15 15 15 15 13 14 16 16 16 17 20 22 21 21 21 20 22 20
6 6 5 4 4 4 4 3 2 2 2 2 1 0 0 2 2 2 1 2 2 3 4 5 6 6 7 7 7 8 9 9 9 10 9 9 11 12 12 12 13 13 12 12 13 13 13 13 13 15 15 15 15 14 13 13 14 14 14 13 14 16 16 16 16 17 17 15 14 14 14 13 13 15 15 17 17 15 17 22 22 21 21 21 22
5 5 5 5 3 3 3 4 4 4 3 3 3 3 3 2 1 1 1 2 3 4 5 6 7 7 7 8 8 9 9 9 10 10 10 12 12 13 13 12 12 12 13 13 14 15 14 14 14 14 14 14 15 15 14 12 13 14 14 13 14 17 17 17 17 17 17 17 16 15 16 15 15 15 14 16 16 16 16 14 15 15 16 19 22
6 5 5 4 3 4 4 5 5 4 4 3 4 2 1 1 1 2 2 3 4 6 7 7 8 8 8 8 9 10 11 11 11 12 12 12 13 13 13 12 12 12 13 13 13 14 13 14 14 14 14 14 13 15 13 13 13 14 14 13 14 16 16 16 17 17 18 18 17 15 16 17 17 16 14 15 15 16 15 14 14 14 15 17 18
4 5 5 5 5 5 5 5 4 4 4 3 2 1 2 3 3 4 4 4 5 6 7 7 8 8 9 9 10 11 11 11 12 12 13 13 13 13 13 13 12 12 12 12 13 13 14 14 14 15 15 16 15 15 14 13 14 14 15 11 14 15 16 15 16 16 16 15 14 15 15 17 18 17 18 17 16 15 15 14 14 14 14 14 13
7 8 8 7 6 6 5 5 4 3 3 2 2 2 3 4 5 5 5 6 7 8 8 9 9 9 10 11 11 12 12 13 13 13 13 14 14 14 14 12 13 13 13 13 13 14 13 14 15 15 16 15 15 15 14 14 15 15 12 12 14 14 12 15 16 17 16 15 14 14 16 15 17 17 18 17 15 15 15 16 15 16 16 14 14
9 8 8 7 6 5 5 3 3 4 4 2 2 3 4 5 6 7 7 7 8 8 8 9 10 11 12 12 12 13 13 13 13 14 14 14 13 13 13 12 13 14 14 14 13 13 14 14 15 15 15 16 15 16 16 15 15 15 13 13 12 13 13 10 12 16 16 15 16 19 18 18 17 16 17 15 15 14 16 16 17 19 16 16 15
7 7 7 7 5 4 2 4 3 4 4 4 4 5 6 7 7 7 8 8 9 9 10 11 12 12 13 13 12 13 13 14 14 14 14 14 14 14 13 13 13 13 14 14 14 14 14 14 14 15 17 17 16 17 17 16 16 16 13 12 12 13 13 12 13 15 16 14 16 15 18 20 21 19 19 16 14 13 14 17 18 18 17 17 16
7 8 7 5 4 2 2 4 4 5 5 6 6 6 7 7 8 8 9 10 10 11 12 12 12 12 12 13 12 13 14 14 14 14 14 14 13 13 13 13 13 13 14 14 14 14 15 14 14 15 14 15 16 16 16 16 13 14 15 11 11 10 12 14 15 16 12 13 16 17 15 18 20 22 21 19 17 14 15 14 15 17 15 17 14
6 6 4 3 3 4 5 5 4 5 6 6 6 6 7 8 9 9 10 10 11 12 12 12 12 13 14 14 13 13 14 15 14 14 13 13 12 13 13 13 14 13 13 14 15 15 15 16 15 15 15 15 15 16 16 15 14 13 13 11 9 12 12 11 14 15 13 14 14 14 15 17 16 18 18 20 20 18 17 16 16 16 17 14 10
7 6 4 4 4 4 4 5 5 6 6 6 7 7 8 9 9 11 12 12 12 12 12 13 13 14 14 14 14 14 14 13 13 13 14 13 13 13 13 13 12 13 15 16 16 15 15 15 15 14 15 15 15 16 16 17 16 15 15 16 11 13 14 14 13 12 13 14 15 14 14 13 12 15 16 18 20 20 21 15 19 19 16 10 9
4 4 6 5 4 4 5 6 6 7 6 7 8 9 10 10 11 13 12 13 12 12 13 14 14 14 14 15 15 15 14 12 13 13 14 14 13 13 13 13 14 14 15 16 16 15 15 15 15 14 14 14 14 14 15 15 15 15 16 16 17 16 17 14 13 15 14 14 14 14 14 15 16 15 14 16 18 20 16 15 20 18 15 13 10
3 4 5 4 3 4 5 6 6 6 6 7 8 10 11 12 13 12 11 12 12 13 13 14 14 14 15 13 14 14 14 14 14 14 14 14 14 14 13 13 13 14 14 14 14 14 14 14 14 14 13 13 13 12 12 13 14 16 16 17 18 19 17 13 13 14 15 16 16 16 14 16 13 13 14 16 17 16 13 18 18 19 16 13 10
3 4 5 4 4 5 6 6 6 7 7 8 9 10 12 13 12 11 12 12 13 13 14 14 14 14 14 14 14 14 14 14 13 13 14 13 14 13 13 12 12 12 13 13 13 13 12 13 13 13 13 13 11 11 11 11 11 10 13 14 17 17 16 16 14 14 17 17 17 18 17 15 11 11 14 15 13 16 19 17 17 16 15 11 11
3 3 4 4 4 5 6 7 7 8 8 8 9 10 12 12 12 11 12 12 13 13 14 15 14 14 14 14 15 15 14 14 13 12 12 12 12 12 12 12 11 11 11 11 12 13 13 13 11 11 12 12 13 13 13 12 11 11 11 11 13 15 18 18 18 16 18 19 20 20 20 18 14 11 9 7 9 11 13 16 17 16 12 11 10
3 4 4 4 5 5 6 8 9 8 8 9 11 11 11 11 11 12 13 13 13 13 14 14 14 14 15 14 14 13 12 13 13 11 10 10 9 10 11 12 11 11 11 11 12 12 12 11 10 10 11 13 13 13 13 13 11 10 10 9 9 11 14 14 11 11 11 12 15 17 15 15 13 14 14 13 13 11 10 10 10 9 7 8 9
3 3 4 4 5 6 8 9 9 9 10 10 11 11 12 12 13 14 13 13 13 13 14 14 15 14 13 13 13 15 15 12 11 11 11 10 11 12 12 12 13 12 12 12 12 11 11 10 11 12 12 12 13 13 13 12 11 9 11 12 12 12 11 11 11 11 10 9 10 9 12 11 10 9 10 10 11 10 9 7 5 4 6 8 9
2 3 3 4 6 7 9 10 11 10 10 11 12 12 12 13 13 13 12 12 13 14 14 15 14 12 12 12 12 12 11 11 11 12 11 10 11 12 13 13 13 12 9 10 9 11 11 8 8 8 10 11 12 13 11 10 13 16 15 13 12 12 10 10 12 7 8 9 8 8 7 6 7 8 9 11 11 9 4 3 4 3 2 3 3
3 3 4 5 6 8 9 10 10 10 11 11 12 12 12 12 12 12 12 12 14 14 14 13 12 12 12 12 11 12 12 12 12 13 13 12 13 13 13 12 12 12 13 5 1 5 4 5 7 8 7 9 12 14 18 20 21 20 20 20 20 20 20 18 17 9 9 8 8 8 7 7 9 9 9 8 7 5 5 5 6 8 7 6 7
3 4 5 7 8 9 9 10 10 10 9 10 11 12 12 12 12 12 12 13 13 13 13 12 12 12 12 11 11 11 11 12 13 13 11 10 11 10 10 15 16 16 9 5 3 4 5 5 6 9 9 11 15 18 19 20 20 20 19 20 20 19 18 18 13 6 7 8 7 7 7 6 7 8 6 5 5 5 6 7 7 7 6 7 8
Wind_Direction
202 203 199 205 206 208 209 215 218 220 222 229 229 229 226 223 224 227 223 215 220 210 207 210 213 214 223 227 230 225 226 232 232 230 230 234 239 238 225 224 220 221 225 226 230 231 237 244 235 231 242 247 253 262 271 279 288 287 298 279 272 273 273 272 266 283 292 287 278 271 266 261 258 251 253 258 259 259 255 246 240 242 242 235 227
211 204 207 206 211 211 206 214 221 223 222 224 226 230 231 229 225 226 226 220 221 221 214 219 220 222 223 229 237 244 237 229 246 246 240 236 224 224 232 234 228 225 216 215 223 224 225 227 222 229 232 243 251 258 267 272 270 270 272 291 285 283 275 271 278 281 272 285 293 293 291 287 272 264 257 252 253 250 251 249 252 249 241 234 231
204 206 206 211 211 209 210 215 220 226 226 223 225 225 227 229 231 231 230 228 225 223 224 225 226 232 240 243 248 267 266 266 265 258 246 245 240 226 217 229 229 229 218 210 217 222 230 233 235 233 232 239 242 249 254 256 264 270 266 257 281 272 269 269 251 239 261 262 281 287 274 280 256 256 251 253 256 258 255 251 243 238 237 239 236
205 208 210 209 209 205 210 215 219 222 225 228 224 222 224 226 226 223 229 233 235 227 223 234 236 230 231 245 268 265 266 263 251 249 254 256 248 239 223 222 224 231 224 224 226 226 225 230 242 249 241 236 246 256 260 266 265 262 260 254 252 262 266 260 255 242 244 274 272 272 310 291 286 258 260 253 244 243 247 252 244 238 239 237 236
209 207 210 208 207 203 208 215 217 219 223 225 224 222 219 220 219 221 222 228 232 231 227 232 223 215 215 228 240 247 249 250 255 254 250 246 250 240 239 227 229 236 233 231 234 232 224 225 238 249 256 253 253 259 261 261 263 268 269 271 261 262 271 288 272 280 284 264 264 273 259 250 255 292 318 294 273 261 249 244 243 251 249 238 235
206 207 201 204 202 198 202 208 214 217 219 222 222 221 217 220 218 210 222 229 234 232 224 216 214 211 208 218 225 228 239 236 238 247 249 243 241 243 254 245 232 235 235 237 235 236 228 230 237 247 254 254 250 259 268 270 262 256 252 254 256 244 246 249 269 250 235 260 261 258 261 272 273 269 265 272 267 270 277 275 266 250 242 242 240
208 208 205 198 193 203 203 206 211 216 212 214 217 218 214 214 215 222 217 224 233 234 222 206 212 215 220 232 240 242 248 250 253 265 273 274 273 266 252 247 246 247 249 242 237 235 239 239 239 243 250 254 254 254 256 259 264 263 259 249 245 246 239 236 242 258 259 244 246 249 251 250 252 259 254 258 266 259 252 251 246 242 240 242 239
198 202 202 209 198 205 208 205 207 208 207 202 206 207 204 208 212 207 216 225 234 231 211 206 214 219 225 236 247 248 251 260 261 264 267 272 268 263 267 266 260 249 253 255 243 237 239 242 237 238 244 250 255 255 256 259 264 267 264 262 259 250 240 240 246 243 246 254 248 257 269 270 265 261 266 276 270 267 255 252 252 255 253 242 238
198 198 197 202 204 202 207 205 205 207 199 194 193 201 195 193 200 203 208 212 221 212 207 205 214 221 226 233 238 251 262 268 267 261 268 278 277 277 275 278 265 248 245 247 239 238 237 240 239 239 245 251 254 254 252 254 255 258 258 255 248 242 239 241 239 244 247 252 261 253 249 254 254 259 268 262 268 277 265 253 251 246 247 249 244
200 197 196 192 203 203 204 201 194 206 197 194 189 196 201 190 187 198 197 204 201 190 198 204 208 214 224 239 249 249 251 256 263 266 263 262 268 268 269 262 258 246 242 237 238 240 240 233 233 239 246 251 250 252 255 255 253 250 250 250 250 245 239 237 235 235 231 248 248 248 238 241 243 238 233 242 243 241 261 258 251 247 239 233 240
195 194 191 191 197 202 199 200 192 196 200 196 204 200 206 204 192 197 205 212 204 196 192 197 202 207 220 228 233 242 248 255 256 256 255 254 260 267 258 245 247 258 250 253 249 243 241 245 252 251 250 251 248 253 253 255 256 255 254 249 246 246 244 241 240 236 229 234 242 238 242 242 241 242 239 242 244 244 250 250 247 245 250 254 236
188 189 188 187 191 199 197 201 193 197 199 201 205 202 209 211 207 204 205 206 204 198 196 200 203 204 220 221 228 234 241 245 246 248 246 249 251 250 250 256 252 248 245 251 254 251 250 249 248 252 252 252 253 255 262 266 267 265 262 260 255 246 243 244 244 242 238 234 236 241 245 245 244 244 246 247 250 247 252 256 253 249 245 244 244
186 184 186 184 187 192 194 195 197 197 203 205 210 205 202 207 205 203 207 201 204 203 196 202 203 207 210 216 220 225 225 231 246 254 254 252 252 258 256 252 245 243 250 256 257 251 251 249 248 249 245 242 251 266 273 275 273 272 270 263 259 256 252 245 238 236 238 243 245 247 247 246 245 246 244 247 251 252 253 259 263 263 256 247 244
184 181 187 181 185 189 191 195 194 197 203 202 206 212 203 201 203 206 201 200 196 208 210 206 210 218 217 217 220 212 220 229 233 250 248 259 263 268 278 283 286 277 270 263 270 273 268 265 257 257 258 261 263 263 265 267 271 268 263 261 261 261 259 251 245 248 248 248 248 250 247 247 249 245 246 247 248 252 258 253 258 259 252 252 247
185 181 187 182 184 186 187 191 193 197 202 200 198 194 197 198 195 197 204 195 199 207 213 221 228 223 223 227 225 228 226 219 227 241 278 270 273 285 286 285 284 286 284 285 285 280 278 274 270 268 268 267 263 259 261 260 258 256 258 260 259 255 254 254 254 253 253 251 249 250 253 252 250 249 246 244 245 242 234 242 248 250 248 248 245
185 180 186 182 181 183 186 187 190 193 191 197 192 186 196 194 193 199 200 206 207 206 212 217 221 224 205 214 218 221 229 237 219 236 244 271 289 295 299 291 282 282 279 280 278 275 274 273 270 267 264 263 261 261 261 263 263 260 255 252 252 251 250 249 251 254 256 255 255 253 252 252 249 249 245 243 239 237 242 252 280 265 262 252 247
186 183 186 181 180 184 186 188 188 188 186 193 194 190 192 187 191 195 196 200 204 200 206 208 203 207 195 200 202 193 210 241 247 212 227 268 275 272 272 278 285 279 280 277 276 276 276 277 278 280 279 275 268 261 260 260 259 259 259 257 256 253 252 252 252 253 252 252 251 250 249 249 248 248 248 246 246 245 239 238 242 242 252 253 251
186 186 182 182 183 184 187 188 190 188 186 190 190 198 182 189 190 190 191 195 193 193 202 201 198 200 200 205 211 237 231 219 189 234 234 246 250 249 261 271 283 299 302 297 293 284 279 276 273 273 273 273 274 274 270 263 258 255 256 257 258 258 256 255 252 252 252 250 250 250 250 249 247 246 247 244 243 237 232 237 241 242 253 253 247
185 188 182 184 184 186 188 190 190 186 193 190 186 196 177 188 189 193 196 192 188 188 196 207 196 214 213 229 225 201 206 182 179 200 220 242 262 280 287 291 287 282 280 280 279 278 276 275 272 269 266 265 264 263 262 263 263 261 259 258 258 257 256 254 253 249 251 252 251 250 249 251 251 251 252 248 245 241 239 235 238 247 258 279 267
186 189 187 187 184 188 186 190 191 185 190 195 188 185 193 185 181 187 190 182 181 184 187 197 204 231 239 216 200 198 186 191 200 214 236 272 287 292 293 286 287 295 289 287 281 281 282 283 282 280 276 272 268 264 263 261 259 257 260 260 261 259 256 255 258 257 255 250 248 248 249 252 253 254 254 254 252 250 242 236 237 232 231 254 265
187 192 189 187 185 189 185 189 187 187 186 197 190 192 198 174 181 184 188 179 184 186 188 198 202 211 232 222 209 191 204 207 219 225 239 261 276 283 283 291 295 283 286 283 281 278 277 275 276 276 275 272 272 272 273 273 270 266 260 264 267 267 265 261 257 261 259 258 255 252 250 250 252 253 250 247 236 233 242 240 224 219 240 241 240
192 196 190 188 185 188 182 184 177 184 177 180 185 193 191 174 182 182 183 182 189 189 195 197 202 211 213 215 230 224 213 221 226 233 242 267 279 287 290 286 282 282 278 279 280 282 278 276 273 272 272 272 271 269 266 266 264 262 263 262 265 263 260 258 261 261 258 258 257 254 252 252 249 250 251 253 250 247 241 232 216 216 230 241 237
194 196 190 187 180 187 174 179 177 183 180 180 182 180 181 176 179 181 186 190 197 196 196 201 207 210 213 217 221 225 225 226 232 238 252 264 280 277 274 272 271 275 277 277 279 281 283 281 277 274 273 272 270 269 268 266 266 265 263 263 264 267 266 264 259 258 258 257 257 255 255 253 251 251 248 245 246 248 249 247 238 225 230 235 238
192 192 182 168 167 171 155 165 172 176 172 173 166 171 179 179 184 187 196 196 198 200 203 207 211 216 220 223 225 225 225 230 235 242 253 268 273 266 265 261 260 263 270 276 281 283 283 279 276 273 270 268 267 265 265 263 263 263 264 263 264 264 267 267 266 265 265 263 261 261 258 255 253 255 255 250 242 241 242 246 242 234 236 236 237
175 156 150 156 164 168 164 169 171 168 165 165 164 173 179 182 189 195 202 202 204 207 209 212 217 224 228 230 231 228 230 232 240 250 258 263 262 259 256 255 255 261 270 274 275 278 278 275 274 269 266 264 264 264 263 263 262 263 264 266 265 265 264 265 265 263 263 263 263 262 262 260 256 252 252 251 249 241 234 242 244 239 234 236 239
180 169 168 173 169 161 159 164 166 168 169 167 169 173 180 190 197 200 205 203 209 213 215 219 224 229 234 239 239 237 237 238 242 248 259 264 258 252 249 251 255 258 261 265 268 269 277 280 278 273 270 266 264 262 263 263 263 264 264 264 264 264 264 264 265 263 261 260 260 261 262 261 260 256 255 252 249 242 235 236 239 236 234 233 231
183 182 176 166 164 166 161 161 167 171 170 173 174 178 189 198 204 203 211 216 215 221 220 226 229 234 240 244 247 246 246 248 250 253 257 255 252 249 250 254 255 260 261 265 265 269 273 276 273 270 267 267 266 264 262 261 261 262 262 262 262 262 263 264 263 264 264 264 261 260 261 259 259 257 257 256 250 246 240 235 232 237 234 220 227
165 171 171 172 165 160 161 162 165 168 170 176 180 182 192 202 210 212 214 220 225 225 228 230 232 237 240 246 251 255 255 254 253 253 253 253 253 254 256 258 258 258 262 265 271 273 274 272 269 269 268 267 265 263 261 260 260 260 260 260 261 262 263 262 262 262 262 262 263 261 258 258 257 257 256 255 250 245 245 240 234 231 234 226 222
165 165 171 168 163 160 162 166 170 170 172 174 174 177 193 206 223 235 236 240 238 237 238 241 244 249 254 259 264 264 258 255 251 249 250 251 253 255 255 257 258 264 269 268 268 270 270 270 267 266 267 264 264 262 260 258 259 259 259 261 261 261 263 266 265 263 263 262 262 262 260 258 256 254 252 254 255 255 252 248 239 227 224 228 216
152 153 160 161 159 159 164 167 169 176 176 180 188 203 217 235 244 245 245 245 241 241 248 253 256 258 259 259 258 255 254 251 249 251 253 254 255 257 259 261 263 265 267 268 269 271 271 268 268 267 265 265 263 261 259 255 254 261 264 265 265 266 266 267 268 269 266 262 262 261 261 261 260 259 255 250 246 245 243 244 251 246 246 245 226
130 142 148 141 142 151 161 168 171 178 181 177 223 233 234 240 250 256 254 250 250 263 264 266 265 264 265 262 258 255 253 253 255 256 258 260 261 262 264 266 268 268 269 272 274 272 270 269 267 267 267 266 265 262 257 249 243 243 254 264 268 269 270 269 268 267 266 264 261 259 260 257 252 248 248 246 245 242 240 239 235 236 224 229 250
135 133 136 146 159 159 162 164 163 187 216 232 236 254 278 258 245 245 341 345 283 260 259 260 262 262 258 256 255 257 255 256 258 261 264 266 266 266 269 271 272 274 276 278 276 272 272 272 270 269 269 268 268 267 261 253 246 244 244 261 268 269 269 269 268 269 268 266 265 264 261 260 257 255 256 250 238 233 237 238 236 235 235 234 238
135 139 149 153 155 157 157 180 187 79 69 65 40 208 127 42 24 27 348 249 251 260 268 266 263 261 261 262 264 265 267 267 269 270 271 272 273 274 275 278 278 280 281 277 275 275 273 272 271 271 270 270 271 268 256 247 246 244 240 244 263 268 267 268 267 266 266 266 266 264 262 258 260 252 248 251 255 250 230 231 234 235 235 234 235
129 139 144 148 152 156 112 77 79 87 87 91 72 56 48 43 31 226 258 265 276 273 268 270 270 268 271 273 272 272 272 273 276 276 277 278 278 278 280 280 281 280 278 276 275 274 273 271 271 271 272 272 271 271 262 248 240 238 239 238 256 264 265 265 265 265 265 264 260 261 262 260 258 257 254 250 250 248 251 238 228 229 233 232 231
130 138 143 126 108 91 98 96 85 79 75 83 85 64 48 209 262 292 272 273 271 277 275 278 279 277 276 277 277 280 282 282 281 280 280 280 280 282 283 283 282 281 280 278 277 277 275 274 273 272 272 272 272 269 260 250 241 235 237 236 255 264 268 268 267 265 264 263 263 261 262 262 261 259 255 251 249 250 249 249 248 240 234 233 232
106 111 97 102 95 88 81 81 85 84 91 76 67 19 328 317 300 289 290 285 288 287 288 288 287 287 287 289 287 286 284 284 284 283 283 283 284 284 285 285 283 281 278 278 277 275 275 275 274 274 274 273 273 269 259 249 241 235 233 242 258 263 265 265 266 268 267 263 261 259 258 259 258 257 255 248 248 252 253 252 247 244 245 242 234
102 95 97 83 84 85 92 109 97 94 84 60 23 355 328 315 310 312 310 305 300 297 295 295 293 292 292 292 291 291 290 287 286 286 284 284 285 285 284 283 282 281 281 279 278 277 278 277 277 275 274 275 276 270 260 250 243 239 237 250 257 262 266 267 264 263 262 261 253 248 254 255 254 254 252 247 242 238 249 251 251 247 246 247 246
91 91 87 90 91 109 100 51 87 104 70 46 2 340 323 317 320 317 312 308 302 298 299 296 295 296 295 295 293 291 289 287 287 286 286 285 285 282 281 281 281 282 280 280 280 279 277 275 275 275 274 275 274 269 258 248 240 236 234 252 259 262 259 256 269 266 260 259 259 249 249 254 255 255 253 245 236 231 243 246 248 251 252 249 249
93 97 98 95 82 47 44 89 48 43 24 12 348 334 326 324 317 313 308 302 299 299 300 301 299 298 296 293 290 288 286 288 288 287 287 287 286 285 285 283 280 279 280 279 278 278 278 278 276 274 275 273 273 272 265 253 244 239 236 248 253 258 260 261 264 265 262 259 264 254 239 242 251 252 250 244 237 231 244 244 244 245 248 250 247
94 87 89 95 104 124 79 40 33 22 359 352 339 330 326 315 311 308 302 299 300 302 302 300 296 294 293 292 290 288 289 288 288 288 288 286 287 285 284 284 283 283 283 284 283 283 282 281 280 278 275 272 272 271 271 264 248 240 233 243 256 256 257 260 262 262 262 264 264 262 252 239 236 242 244 243 241 227 239 243 248 245 241 244 244
98 92 94 89 60 31 6 6 20 360 349 344 338 327 317 314 308 303 299 302 304 302 299 295 294 293 292 290 291 291 291 291 289 289 289 288 287 287 288 287 287 286 285 285 284 283 282 280 278 277 276 275 274 275 274 265 258 246 236 226 251 254 259 260 267 263 261 264 260 259 265 255 232 229 232 236 236 227 225 237 238 245 242 250 259
87 78 52 39 18 14 352 350 355 346 345 338 329 319 313 310 305 300 302 304 302 299 297 296 294 293 293 292 291 291 291 291 291 291 291 290 289 290 289 287 287 287 286 284 283 281 279 279 279 277 277 277 276 271 273 270 259 251 245 236 241 255 256 268 269 265 265 267 267 267 262 257 250 239 232 231 229 225 224 230 242 242 251 258 255
79 73 57 21 11 352 351 350 340 343 338 329 321 312 309 306 301 304 306 304 305 302 300 297 295 294 294 293 293 293 294 294 295 295 295 294 293 290 286 286 285 284 282 281 280 280 280 281 282 281 281 279 275 268 256 261 260 249 245 244 241 249 255 255 258 261 262 266 270 270 263 260 253 246 235 228 225 225 223 229 237 242 244 246 253
72 51 37 21 1 351 341 337 331 331 326 319 317 309 307 305 303 309 309 307 303 300 300 299 297 296 296 295 295 296 297 297 296 298 297 294 291 289 287 285 283 283 282 281 281 282 283 284 285 284 283 278 275 273 275 267 266 261 255 251 248 246 246 250 256 260 262 266 269 264 262 259 253 246 235 226 223 221 224 227 229 236 237 234 237
56 47 38 14 357 340 326 322 324 322 322 318 312 308 305 303 306 309 307 304 303 302 302 300 300 300 299 297 298 297 297 297 297 296 295 292 291 290 288 286 284 282 282 284 285 286 287 287 285 282 281 285 288 288 286 286 283 271 255 253 258 261 257 249 252 261 266 269 266 266 268 269 259 241 236 229 223 225 226 231 230 227 225 229 231
87 70 27 358 341 325 321 319 319 321 319 316 311 307 305 306 311 310 305 305 306 304 302 302 300 299 299 300 299 298 296 296 296 295 292 289 288 289 286 287 285 283 282 283 286 286 284 282 283 288 294 295 296 298 300 302 305 303 297 277 267 265 264 254 249 261 269 269 264 255 251 252 249 236 234 234 229 231 223 229 232 228 221 220 220
51 49 9 352 339 328 324 323 319 322 319 313 310 308 307 310 305 304 304 305 305 304 302 301 302 303 302 300 300 299 300 299 296 291 289 287 286 284 285 284 284 287 287 286 286 285 286 291 285 288 294 300 298 298 298 299 301 307 308 315 319 310 302 301 287 269 253 248 246 243 241 236 235 235 236 242 246 241 230 227 233 230 226 230 228
54 31 6 337 331 327 323 323 319 318 317 312 312 310 311 311 309 307 308 309 307 304 303 303 304 305 304 302 298 297 296 295 295 297 294 293 289 288 285 283 283 284 285 286 289 291 289 286 297 306 304 298 297 296 299 305 311 315 305 300 296 288 281 271 274 265 268 289 300 257 227 228 227 232 236 241 243 244 241 246 253 238 226 224 230
25 2 348 339 331 326 322 320 317 317 315 315 313 310 311 310 309 313 319 314 307 304 303 303 303 302 301 300 298 300 300 297 297 292 288 284 287 285 282 283 285 281 283 289 292 292 296 312 310 299 299 299 296 297 300 318 303 296 292 291 290 279 268 268 259 310 346 311 300 278 243 215 211 222 228 233 240 239 198 147 129 81 62 92 105
16 344 345 336 335 329 323 320 317 319 318 314 314 313 313 313 315 315 316 310 308 306 304 302 302 301 301 301 305 304 301 298 294 292 293 293 278 264 262 271 278 283 284 331 83 280 305 308 301 297 302 298 298 297 302 301 293 290 287 278 270 264 261 261 265 292 288 287 272 273 243 219 217 215 216 218 219 201 157 116 95 100 110 115 110
4 351 350 341 333 326 323 321 321 319 312 313 316 315 316 316 315 314 312 309 309 307 306 305 303 301 306 309 305 300 296 291 291 289 287 286 296 290 251 242 247 260 303 352 282 280 285 276 283 298 298 283 282 285 287 286 286 284 280 276 273 267 259 253 246 217 236 224 243 246 238 221 220 217 201 180 154 135 116 113 119 123 121 113 110